www.pogodaiklimat.ru

Погода и климат >> Архив погоды >> Украина >> Киев


АРХИВ ПОГОДЫ в Киеве

Время (UTC), дата Ветер
(напр.,м/с)
 
Видим.   Явления Облачность Т
(С)
Тd
(С)
f
(%)
Тe
(С)
Тes
(С)
Комфортность P
(гПа)
Po
(гПа)
Тmin
(С)
Tmax
(С)
R
(мм)
R24
(мм)
S
(см)
09 18.06 СВ 4 20 км 4/4 600 м
[Cu med, cong]
+23.1 +13.5 55 +26 +33 жарко 1014.3 995.0
12 18.06 СВ 4 20 км 4/4 600 м
[Cu med, cong]
+25.4 +8.4 34 +26 +32 жарко 1013.7 994.6
15 18.06 СВ 4 20 км 3/3 600 м
[Cu med, cong]
+25.4 +6.4 30 +25 +27 комфорт 1014.0 994.9
18 18.06 СВ 1 20 км 3/3 600 м
[Cu hum]
+22.4 +7.2 37 +23 +23 комфорт 1014.9 995.6 +25.9
21 18.06 С 1 20 км ясно +18.4 +8.1 51 +20 +20 тепло 1015.8 996.2
00 19.06 СЗ 1 20 км ясно +17.1 +8.1 55 +18 +18 тепло 1015.9 996.2
03 19.06 СЗ 2 20 км 3/3 600 м
[Cu hum Ac lent]
+16.4 +7.4 55 +17 +17 по сезону 1016.1 996.3
06 19.06 СЗ 2 20 км 4/0
[Ci fib]
+22.7 +9.4 43 +24 +32 комфорт 1015.2 995.9 +16.3
09 19.06 С 3 20 км 5/3 1000 м
[Cu hum Ci fib]
+25.8 +7.9 32 +26 +35 жарко 1014.5 995.4
12 19.06 СЗ 4 20 км 6/6 600 м
[Cu med, cong]
+27.2 +10.6 35 +28 +32 жарко 1013.0 994.0
15 19.06 С 3 20 км 3/3 1000 м
[Sc diur, vesp]
+27.8 +10.8 35 +29 +31 жарко 1012.0 993.1
18 19.06 С 2 20 км 3/3 1000 м
[Sc diur, vesp]
+25.7 +12.2 43 +27 +27 жарко 1012.3 993.2 +28.2
21 19.06 С 2 20 км ясно +23.2 +13.0 53 +26 +26 жарко 1012.8 993.6
00 20.06 СЗ 2 20 км ясно +20.5 +13.2 63 +23 +23 комфорт 1012.8 993.4
03 20.06 С 3 20 км ясно +20.0 +14.2 69 +22 +23 комфорт 1012.7 993.3
06 20.06 С 2 20 км ясно +23.3 +15.1 60 +27 +36 душно 1012.5 993.3 +20.0
09 20.06 СЗ 3 20 км 4/4 600 м
[Cu med, cong]
+26.2 +13.5 45 +28 +37 жарко 1011.9 992.9
12 20.06 СЗ 3 20 км 5/3 1000 м
[Cu med, cong Ci sp]
+28.4 +10.7 33 +29 +37 жарко 1010.5 991.6
15 20.06 С 3 20 км 4/3 1000 м
[Cu med, cong Ci sp]
+28.1 +9.5 31 +28 +31 жарко 1008.8 989.9
18 20.06 СЗ 1 20 км 3/0
[Ci]
+26.2 +10.9 38 +27 +27 жарко 1008.2 989.2 +29.6
21 20.06 З 4 20 км ясно +23.4 +12.7 51 +26 +26 жарко 1008.4 989.3
00 21.06 СЗ 1 20 км 9/0
[Ac cast]
+21.6 +14.3 63 +25 +25 комфорт 1007.7 988.5
03 21.06 С 1 20 км в посл. час гроза {ливн. осадки} 9/3 300 м
[Cb cap Ac cuf]
+17.4 +15.4 88 +18 +19 по сезону 1007.2 987.7
06 21.06 С 3 20 км {гроза, ливн. осадки} 6/3 600 м
[Sc Ac trans]
+19.3 +14.3 73 +21 +25 комфорт 1008.4 989.0 +17.1 2
09 21.06 СЗ 4 20 км 8/4 1000 м
[Cu med, cong Ac cast Cs]
+22.0 +9.4 45 +24 +28 комфорт 1008.8 989.6
12 21.06 С 4 20 км 6/4 1000 м
[Cu hum Ac cast Cs]
+23.7 +6.6 33 +24 +29 комфорт 1008.5 989.4
15 21.06 С 4 20 км 4/0
[Ac lent]
+23.5 +4.8 30 +23 +25 комфорт 1008.6 989.4
18 21.06 С 3 20 км 3/0
[Ac cast]
+20.8 +3.8 33 +22 +22 комфорт 1010.1 990.7 +24.6
21 21.06 СЗ 1 20 км ясно +16.9 +5.6 47 +18 +18 по сезону 1010.8 991.2
00 22.06 СЗ 2 20 км ясно +15.6 +6.4 54 +16 +16 по сезону 1011.1 991.4
03 22.06 СЗ 2 20 км 4/0
[Ac cast Ci]
+14.1 +7.0 62 +14 +14 прохладно 1012.0 992.2
06 22.06 СВ 3 20 км 5/3 600 м
[Cu Sc Ac cast Ci sp]
+18.6 +6.7 46 +19 +23 по сезону 1012.6 993.0 +13.8
09 22.06 СЗ 4 20 км 9/4 600 м
[Cu med, cong Ci fib]
+20.3 +5.7 38 +21 +27 комфорт 1012.5 993.1
12 22.06 С 3 20 км 9/3 600 м
[Cu med, cong Cs]
+22.4 +4.4 31 +23 +30 комфорт 1011.8 992.5
15 22.06 СЗ 3 20 км 3/1 1000 м
[Cu hum Ci fib]
+22.7 +2.3 26 +22 +26 комфорт 1011.3 992.0
18 22.06 С 2 20 км 3/0
[Ci fib]
+20.0 +4.0 35 +21 +21 комфорт 1012.1 992.6 +23.6
21 22.06 З 1 20 км 5/0
[Ci fib]
+17.7 +4.8 42 +19 +19 тепло 1011.8 992.2
00 23.06 З 1 20 км 8/0
[Ac trans]
+15.2 +7.8 61 +16 +16 по сезону 1011.7 991.9
03 23.06 З 3 20 км 9/0
[Ac lent]
+16.8 +7.3 53 +17 +17 по сезону 1009.9 990.3
06 23.06 З 3 20 км 9/0
[Ac lent]
+18.8 +10.5 59 +20 +22 тепло 1008.6 989.2 +15.1
09 23.06 ЮЗ 4 20 км 8/3 600 м
[Cb calv Ac trans Cc]
+23.9 +11.4 45 +25 +30 комфорт 1007.2 988.1
12 23.06 З 4 20 км в посл. час ливневой дождь 9/8 300 м
[Cb cap Ac cuf]
+21.0 +16.2 74 +25 +26 комфорт 1004.9 985.7
15 23.06 штиль 0 10 км слабый ливневой дождь 10/8 300 м
[Cb cap Ac cuf]
+18.5 +16.3 87 +19 +20 прохладно 1004.0 984.7
18 23.06 ЮЗ 1 10 км {ливн. осадки} 10/8 960 м
[Sc Ac cuf]
+17.7 +16.0 90 +19 +19 по сезону 1003.6 984.2 +27.4 5
21 23.06 СВ 2 10 км 8/8 630 м
[Sc]
+16.8 +15.3 91 +17 +17 по сезону 1004.1 984.6
00 24.06 С 2 4000 м дымка 10/10 210 м
[St]
+16.4 +15.0 91 +16 +16 по сезону 1005.8 986.3
03 24.06 С 2 4000 м дымка 9/5 600 м
[Sc Ac trans]
+15.1 +14.0 93 +15 +15 по сезону 1007.3 987.7
06 24.06 СВ 1 20 км 8/1 600 м
[Cu hum Cc]
+18.0 +13.8 76 +19 +26 по сезону 1008.8 989.3 +15.0
09 24.06 СЗ 1 20 км 9/9 600 м
[Cb cap]
+21.7 +10.4 49 +23 +25 комфорт 1009.1 989.8
12 24.06 З 3 20 км 9/9 600 м
[Cb cap]
+23.3 +13.0 52 +26 +28 жарко 1008.6 989.5
15 24.06 З 4 20 км слабый ливневой дождь 10/6 600 м
[Cb calv As op]
+20.1 +13.9 67 +22 +22 комфорт 1009.1 989.8
18 24.06 СЗ 3 10 км дождь {ливн. осадки} 10/10 360 м
[Frnb Ns]
+18.0 +15.8 87 +18 +18 по сезону 1009.7 990.2 +23.4 0.4
21 24.06 СЗ 3 10 км {дождь} 9/9 1500 м
[Sc]
+17.6 +15.0 85 +18 +18 по сезону 1010.9 991.4
00 25.06 З 2 10 км {дождь} 9/0
[Ac trans]
+17.8 +15.3 85 +18 +18 тепло 1011.2 991.7
03 25.06 С 2 20 км ясно +16.3 +14.0 86 +16 +17 по сезону 1012.1 992.4
06 25.06 СЗ 3 20 км 4/4 600 м
[Cu hum]
+20.0 +13.6 67 +22 +26 комфорт 1012.6 993.2 +16.2 0.3

 

Местоположение метеостанции Киев (город Киев, Украина): широта 50.40 долгота 30.57 высота над уровнем моря 167 м.

В архиве по умолчанию представлена погода в Киеве за последнюю неделю. Архивные данные за месяц целиком и за предыдущие месяцы, начиная с января 2011 года, Вы можете получить, выбрав интересующий диапазон дат из раскрывающегося списка и нажав кнопку "Ввод!".

Внимание! Время в таблицах - всемирное. Для получения местного времени необходимо прибавить поправку, которая в Киеве равна 2 ч.

Смотрите также архив погоды в соседних городах и на ближайших метеорологических станциях:

Погода в Вышгороде (Киевская область, Украина) (21 км)
Погода в Борисполе (Киевская область, Украина) (29 км)
Погода в Барышевке (Киевская область, Украина) (54 км)
Погода в Фастове (Киевская область, Украина) (58 км)
Погода в Остере (Черниговская область, Украина) (65 км)
Погода в Тетереве (Киевская область, Украина) (78 км)
Погода в Белой Церкви (Киевская область, Украина) (79 км)
Погода в Мироновке (Киевская область, Украина) (87 км)
Погода в Яготине (Киевская область, Украина) (90 км)
Погода в Чернобыле (Киевская область, Украина) (101 км)

Пояснения к столбцам:

Ветер - указаны скорость ветра в м/с - средняя за 10 мин, порывы в срок и между сроками (в фигурных скобках) и направление, откуда дует ветер: С - северный, СВ - северо-восточный, В - восточный, ЮВ - юго-восточный, Ю - южный, ЮЗ - юго-западный, З - западный, СЗ - северо-западный.
Видимость - горизонтальная дальность видимости в метрах или километрах. При видимости от 1 до 10 км при отсутствии осадков обычно наблюдается дымка, при ухудшении видимости до 1 км и менее - туман. В сухую погоду видимость может ухудшаться дымом, пылью или мглою.
Явления - указаны атмосферные явления, наблюдавшиеся в срок или в последний час перед сроком; фигурными скобками обозначены явления, наблюдавшиеся между сроками (за 1-3 часа до срока); квадратными скобками обозначены град или гололедные отложения с указанием их диаметра в мм.
Облачность - указаны через наклонную черту общая и нижняя облачность в баллах и высота нижней границы облаков в метрах; квадратными скобками обозначены формы облаков: Ci - перистые, Cs - перисто-слоистые, Cc - перисто-кучевые, Ac - высококучевые, As - высокослоистые, Sc - слоисто-кучевые, Ns - слоисто-дождевые, Cu - кучевые, Cb - кучево-дождевые. Подробнее классификацию облаков см. в Атласе облаков (PDF).
T - Температура воздуха - температура, измеренная на высоте 2 м над землей.
Td - Температура точки росы - температура, при понижении до которой содержащийся в воздухе водяной пар достигнет насыщения.
f - Относительная влажность воздуха - влажноcть воздуха, измеренная на высоте 2 м над землей.
Te - Эффективная температура - температура, которую ощущает одетый по сезону человек в тени. Характеристика душности погоды. При расчете учитывается влияние влажности воздуха и скорости ветра на теплоощущения человека.
Tes - Эффективная температура на солнце - температура, которую ощущает человек, с поправкой на солнечный нагрев. Характеристика знойности погоды. Зависит от высоты солнца над горизонтом, облачности и скорости ветра. Ночью, в пасмурную погоду, а также при ветре 12 м/с и более поправка равна нулю.
P - Атмосферное давление - приведенное к уровню моря атмосферное давление.
Po - Атмосферное давление - измеренное на уровне метеостанции атмосферное давление.
Tmin - Минимальная температура - минимум температуры воздуха на высоте 2 м над землей.
Tmax - Максимальная температура - максимум температуры воздуха на высоте 2 м над землей.
R - Количество осадков - Количество выпавших осадков за период времени, мм. При наведении курсора мыши на число - период времени, за который выпало указанное количество осадков.
R24 - Количество осадков - Количество выпавших осадков за 24 часа, мм.
S - Снежный покров - Высота снежного покрова, см. При наведении курсора мыши на число - состояние снежного покрова и степень покрытия местности в баллах.